IRIDIUM 10 [+]

Last updated on Tue Sep 11 2018 07:03:55 GMT+0100 (British Summer Time)

1 24839U 97030D 18253.36736661 .00000154 00000-0 47992-4 0 9997 2 24839 86.4010 161.9134 0002226 83.3561 276.7888 14.34219866111485
UTC large
Height (km)
Speed (km/s)
/
Latitude / Longitude
Inclination (degrees)
Orbital Period (minutes)
Azimuth
Elevation
Range (km)
Doppler Factor

Next 0 passes for location: London (51.5072 / 0.1276)

Sorry there are no passes over London.